Location: Knowlton
(51.2333°N, 1.2667°E)
Time: 04:45:48
(UTC+00:00)

H-2A R/B - Pass Details

Date: 18 April 2021
Orbit: 575 x 596 km, 98.2° (Epoch: 06 May)

Event Time Altitude Azimuth Distance (km) Brightness Sun altitude
Rises 21:47:11 0° 15° (NNE) 2,849 7.6 -21.8°
Reaches altitude 10° 21:49:22 10° 17° (NNE) 1,944 6.6 -22.0°
Maximum altitude 21:53:35 79° 104° (ESE) 615 3.3 -22.4°
Enters shadow 21:53:48 76° 142° (SE) 622 3.3 -22.4°
